Vertical_Velocity
3 2 6 -3 1 2 2 4 -1 3 -0 -2 -1 -1 -1 0 -3 -2 -1 -1 -3 -4 -4 -1 -3 -1 1 -2 1 -0 4 2 1 -0 -1 -1 -1 -0 -1 -2 -2 -0 -0
0 2 5 1 4 2 0 -1 -2 1 1 1 0 -1 0 -1 -2 -2 -2 -0 0 -1 -3 0 2 0 -2 1 -0 -1 1 1 2 2 1 3 0 0 0 0 -2 -2 -1
0 0 3 1 0 -2 -2 -2 2 -0 1 1 1 1 -0 1 0 0 -5 -1 -2 0 -0 -3 -4 -3 0 -2 2 -1 1 -1 1 0 0 -2 -0 1 1 1 1 -0 -2
-2 -4 -3 -4 -5 -1 0 -1 -0 -1 -4 1 -0 2 1 0 1 -2 -0 -0 0 1 1 2 2 -2 4 1 -0 -2 -2 -1 -1 -2 3 0 2 2 1 -0 0 2 1
-1 -1 -2 -1 -0 1 -2 1 2 0 0 0 1 0 0 3 -1 1 0 -1 1 -2 1 1 2 -0 2 -5 -1 -2 3 2 -0 -0 5 -1 0 -1 0 -0 0 -0 2
1 1 -1 0 2 1 3 -2 -1 1 -2 2 2 0 2 1 -2 -2 0 -1 1 -1 -2 -1 -2 -0 0 -2 -3 -3 -4 -1 -1 -3 -3 -0 -2 -0 -0 -1 -0 -0 0
0 -2 2 -2 1 1 -1 -1 -1 -1 -2 0 1 1 0 -2 -1 1 -2 -1 -2 -1 -0 -0 -1 -2 -4 -0 0 -1 1 3 1 -0 0 1 -1 1 2 2 -0 1 0
-2 -0 -1 -1 -0 -2 1 1 2 0 1 1 1 1 1 1 3 -2 -2 -1 -2 -4 -0 -0 -1 1 -2 -2 -2 -0 -0 1 1 2 -1 -1 -1 1 2 -0 -2 2 1
0 -1 1 -0 2 0 -0 -1 0 1 -0 -1 0 -1 2 3 3 5 -1 1 0 -1 0 -2 1 0 -2 -0 -1 -0 -1 0 -0 1 -0 1 1 2 -1 -1 1 -1 -1
1 -0 3 -1 -0 0 -2 2 -1 -1 -1 -2 -5 -0 -0 -0 -1 4 3 4 -6 4 -2 0 0 1 2 -1 -1 -0 2 -1 -2 -1 0 1 0 -1 1 -0 -1 -1 0
1 1 -4 -0 -3 1 -1 -2 -2 -3 -0 2 1 -4 -4 -1 2 1 3 5 5 -3 -3 5 -1 2 -0 2 1 0 -2 -2 1 1 -1 -1 -2 -2 -2 -1 1 -0 -2
-3 -2 -3 -3 -1 -2 -2 -3 -0 -1 -1 -0 -2 1 -2 -4 -2 -2 -0 -0 3 7 4 -3 -1 -0 -3 4 -4 0 0 -1 -1 -2 -0 -1 0 0 -2 -2 -2 -1 -1
-3 -2 -1 -1 0 -1 -1 -1 -2 -0 -2 -3 1 -0 -0 2 -1 -1 -3 -2 -4 -4 0 8 5 -1 2 -1 1 -2 -1 -1 1 1 -0 1 2 2 2 0 -0 -1 -0
-2 -1 1 -1 -1 -2 -0 -0 -0 -0 -1 -0 4 1 -2 -3 -2 1 -0 0 -0 -2 -2 1 10 7 4 -2 4 3 -0 1 2 1 0 -0 2 2 1 3 4 3 4
-3 -1 0 -0 -1 0 -2 2 1 1 1 -1 -1 0 -1 1 2 1 2 -3 -3 -2 -4 -1 -2 -1 4 0 1 1 -0 1 -0 1 -0 0 1 1 -1 -1 1 1 1
-1 1 3 1 1 0 -2 -1 -2 -1 -1 -0 -2 -2 -1 -2 -4 -3 2 2 0 1 -3 1 -2 -0 -3 -2 2 2 2 -0 -0 2 3 3 3 3 0 1 -4 0 -1
-0 -0 -1 -3 -3 1 0 -2 0 1 -0 0 -0 -1 -2 -7 -4 -4 -1 -3 -4 1 0 -2 -1 0 -0 5 1 2 3 1 2 4 3 -1 -2 2 4 3 3 0 -2
-3 -3 -2 -3 -2 -4 -1 2 1 2 2 1 -1 -0 2 3 -1 -2 -1 -2 -3 0 -2 -1 -2 -1 -4 -3 -3 4 2 2 3 0 4 0 -2 -4 2 -7 -0 1 -0
-3 -1 2 2 -3 -1 0 -1 -2 1 -1 0 2 -1 -3 2 -0 -2 -1 -2 0 -2 -2 -2 -4 -4 -1 -3 2 -4 -3 -2 3 -1 -2 -2 6 3 -5 -3 1 1 -2
-3 -0 -2 -2 2 0 -1 0 1 -6 0 2 1 0 -0 2 -1 -0 -1 -3 -5 -3 -5 -5 0 -0 -3 -7 -4 -1 3 -5 1 -9 -6 1 -1 -8 -1 2 -1 -4 -6
-0 -2 -2 -2 -2 -1 2 3 -0 1 -4 -3 -2 -1 -0 1 -0 1 1 -1 -1 -1 -1 -5 -1 -2 -1 -1 -5 -1 -0 0 3 -5 4 10 -3 -3 -1 -3 -0 -3 -4
-0 -0 1 -2 -5 -0 -3 -1 2 2 -2 -4 -4 -1 -5 -2 -1 2 -1 -1 0 -4 3 1 5 3 3 -5 -1 0 -3 2 9 -11 -9 9 -23 -2 -0 -8 -9 -8 -2
-0 -1 -2 -2 -1 -2 -4 1 1 0 1 -2 -1 -5 -4 -2 3 6 2 -1 -4 -4 -1 0 5 -1 3 -8 -1 0 -6 -3 1 8 -7 11 -17 1 -0 -3 -4 -1 -1
1 -0 -2 -2 -1 2 -1 7 -9 -5 0 3 4 3 6 -4 -5 3 1 3 2 1 -2 -3 -1 3 1 -0 -5 -0 3 0 -2 -3 -14 7 -4 3 -0 0 -4 -3 0
6 2 8 4 3 5 2 -4 -6 -5 -0 2 0 -1 -1 -1 -4 -1 -1 -0 4 -0 -1 4 -1 2 -1 -3 -1 -3 -1 -0 6 8 -7 -10 -4 -3 -5 7 1 1 -3
-14 -6 -1 9 1 -6 6 3 3 -1 -4 -4 -3 -4 1 2 1 -1 -0 1 3 -1 2 1 1 0 -1 6 1 2 0 1 -4 10 -9 -5 -5 -6 -6 8 1 -5 -3
Height
5929 5930 5929 5927 5930 5932 5930 5928 5927 5927 5927 5927 5925 5924 5921 5919 5917 5916 5914 5914 5912 5911 5910 5910 5909 5909 5910 5910 5911 5911 5910 5910 5911 5912 5911 5911 5912 5912 5913 5913 5914 5914 5914
5931 5930 5929 5930 5931 5931 5929 5929 5929 5928 5928 5927 5926 5925 5923 5921 5918 5917 5915 5914 5914 5913 5911 5910 5909 5909 5909 5908 5909 5908 5908 5907 5907 5906 5909 5909 5910 5911 5911 5912 5913 5914 5914
5929 5930 5931 5932 5931 5930 5930 5930 5930 5930 5928 5927 5926 5925 5923 5922 5919 5917 5916 5914 5913 5912 5913 5911 5910 5909 5910 5909 5907 5907 5906 5905 5903 5903 5904 5906 5907 5909 5911 5911 5912 5913 5914
5933 5933 5933 5933 5932 5932 5932 5931 5930 5929 5928 5927 5925 5924 5923 5921 5919 5917 5915 5914 5913 5912 5913 5912 5911 5911 5909 5908 5907 5905 5905 5904 5902 5902 5901 5904 5905 5906 5908 5910 5911 5911 5912
5934 5934 5934 5934 5933 5933 5932 5932 5931 5928 5926 5925 5924 5923 5921 5920 5919 5917 5915 5914 5913 5911 5911 5911 5910 5910 5908 5907 5906 5905 5903 5903 5903 5901 5900 5901 5902 5904 5905 5906 5908 5909 5910
5935 5934 5934 5934 5933 5932 5931 5930 5928 5927 5925 5923 5922 5921 5920 5919 5917 5917 5914 5913 5912 5910 5910 5908 5908 5908 5907 5906 5904 5903 5902 5902 5901 5900 5899 5898 5900 5901 5901 5903 5904 5906 5907
5935 5934 5935 5933 5932 5930 5928 5927 5925 5923 5920 5920 5919 5918 5917 5917 5916 5915 5913 5911 5910 5909 5909 5907 5906 5907 5906 5905 5903 5902 5900 5900 5899 5898 5898 5898 5898 5898 5898 5899 5901 5902 5904
5934 5933 5932 5930 5929 5927 5925 5923 5922 5919 5917 5916 5916 5915 5914 5913 5912 5911 5910 5909 5908 5907 5907 5906 5905 5904 5903 5902 5901 5900 5899 5898 5897 5896 5895 5895 5895 5895 5895 5895 5896 5898 5901
5932 5931 5929 5927 5926 5924 5921 5919 5917 5915 5913 5911 5910 5910 5910 5910 5910 5910 5907 5906 5905 5904 5903 5903 5903 5902 5900 5899 5898 5898 5897 5895 5895 5894 5893 5892 5892 5892 5892 5892 5892 5893 5896
5929 5928 5927 5925 5922 5919 5918 5915 5911 5910 5908 5906 5904 5904 5904 5905 5905 5906 5906 5905 5900 5899 5900 5898 5898 5900 5899 5896 5894 5894 5893 5892 5891 5890 5890 5889 5888 5888 5888 5888 5888 5889 5891
5927 5926 5923 5921 5919 5917 5914 5911 5908 5905 5903 5902 5900 5898 5897 5898 5898 5899 5900 5901 5901 5898 5892 5894 5894 5892 5894 5893 5891 5890 5889 5887 5887 5886 5885 5885 5885 5884 5884 5884 5883 5884 5885
5922 5921 5919 5918 5916 5914 5911 5907 5904 5901 5898 5896 5895 5895 5893 5892 5892 5892 5892 5892 5893 5894 5895 5892 5886 5886 5886 5886 5885 5882 5883 5882 5881 5881 5880 5879 5878 5879 5880 5879 5879 5879 5879
5918 5917 5917 5916 5914 5911 5908 5905 5902 5899 5895 5890 5890 5890 5890 5890 5889 5888 5885 5884 5885 5884 5883 5885 5886 5883 5880 5879 5879 5877 5875 5874 5874 5874 5874 5872 5871 5871 5872 5872 5872 5873 5874
5915 5915 5915 5912 5910 5909 5907 5904 5901 5896 5893 5890 5889 5889 5887 5885 5884 5883 5882 5879 5876 5874 5874 5875 5875 5876 5876 5871 5869 5870 5870 5869 5868 5867 5866 5866 5864 5863 5863 5863 5863 5863 5864
5913 5913 5912 5911 5908 5907 5905 5902 5898 5896 5893 5890 5887 5885 5883 5881 5879 5876 5873 5871 5868 5866 5865 5865 5865 5865 5865 5866 5865 5863 5862 5862 5862 5860 5858 5857 5856 5856 5856 5856 5855 5854 5854
5910 5911 5910 5907 5906 5903 5900 5898 5896 5893 5890 5889 5886 5882 5877 5874 5870 5868 5865 5863 5861 5860 5857 5855 5854 5854 5854 5855 5855 5855 5854 5853 5852 5852 5851 5848 5847 5848 5846 5846 5848 5846 5845
5907 5907 5906 5904 5902 5899 5895 5892 5891 5888 5884 5881 5878 5875 5872 5868 5863 5859 5856 5853 5853 5852 5851 5848 5846 5845 5843 5844 5845 5845 5845 5844 5843 5842 5840 5838 5836 5835 5836 5835 5835 5834 5834
5904 5903 5902 5899 5898 5894 5892 5889 5886 5883 5879 5875 5872 5867 5863 5859 5856 5852 5848 5845 5844 5842 5843 5841 5838 5836 5834 5832 5832 5833 5832 5830 5829 5827 5828 5828 5826 5824 5823 5821 5821 5821 5820
5898 5899 5899 5896 5893 5890 5888 5885 5881 5878 5873 5868 5865 5861 5857 5853 5850 5846 5843 5839 5837 5836 5834 5832 5830 5828 5827 5824 5821 5818 5818 5818 5816 5815 5812 5811 5811 5810 5809 5810 5808 5805 5804
5895 5894 5892 5889 5886 5883 5881 5880 5876 5873 5868 5864 5859 5855 5850 5846 5843 5841 5837 5833 5830 5829 5827 5824 5824 5822 5820 5815 5814 5812 5809 5805 5805 5801 5800 5798 5798 5797 5795 5793 5791 5790 5788
5890 5890 5888 5886 5881 5878 5875 5873 5871 5868 5863 5859 5853 5849 5844 5840 5836 5834 5830 5826 5823 5822 5820 5816 5814 5813 5810 5807 5805 5803 5801 5798 5796 5791 5789 5788 5785 5783 5780 5776 5774 5772 5771
5883 5882 5881 5878 5875 5872 5869 5866 5863 5861 5856 5852 5846 5842 5837 5833 5829 5827 5822 5820 5817 5814 5812 5808 5804 5802 5798 5795 5792 5790 5787 5785 5783 5777 5775 5773 5768 5766 5763 5760 5756 5754 5753
5875 5874 5873 5871 5869 5866 5864 5861 5857 5853 5848 5842 5837 5833 5829 5825 5821 5818 5814 5810 5806 5804 5802 5799 5795 5791 5787 5783 5780 5776 5774 5770 5767 5763 5759 5756 5750 5748 5745 5741 5737 5735 5733
5867 5865 5864 5862 5860 5858 5855 5853 5848 5844 5840 5834 5829 5824 5820 5816 5812 5809 5806 5802 5798 5794 5790 5787 5783 5778 5774 5770 5765 5762 5758 5753 5750 5744 5740 5738 5733 5732 5729 5725 5722 5720 5717
5857 5851 5855 5853 5851 5849 5845 5842 5838 5833 5827 5822 5818 5813 5810 5807 5803 5801 5796 5793 5789 5783 5779 5774 5771 5767 5761 5755 5750 5747 5744 5740 5736 5731 5725 5724 5722 5720 5717 5714 5709 5705 5702
5842 5844 5847 5846 5843 5838 5837 5833 5828 5823 5818 5814 5811 5806 5803 5799 5794 5790 5786 5783 5777 5771 5767 5762 5758 5752 5746 5742 5737 5733 5729 5726 5721 5718 5712 5710 5708 5704 5704 5701 5697 5693 5690